Indianapolis, IN

12:04 PM EDT on July 23, 2019 (GMT -0400)
Indianapolis Terry

Weather History for KTYQ - May, 2019

Change the Weather History Date:

Wednesday, May 8, 2019

  Actual Average (KEYE) Record (KEYE)
Temperature  
Mean Temperature 62 °F -  
Max Temperature 79 °F 69 °F 86 °F (2007)
Min Temperature 46 °F 50 °F 36 °F (2017)
Degree Days  
Heating Degree Days 2    
Growing Degree Days 12 (Base 50)    
Moisture  
Dew Point 52 °F    
Average Humidity 69    
Maximum Humidity 90    
Minimum Humidity 45    
Precipitation  
Precipitation 0.00 in - - ()
Sea Level Pressure  
Sea Level Pressure 30.03 in    
Wind  
Wind Speed 11 mph (ESE)    
Max Wind Speed 17 mph    
Max Gust Speed 25 mph    
Visibility 10 miles    
Events      
Averages and records for this station are not official NWS values.
T = Trace of Precipitation, MM = Missing Value Source: NWS Daily Summary

Daily Weather History Graph

Daily Weather History Graph

Search for Another Location

Airport or City:

Astronomy

May. 08, 2019 Rise Set
Actual Time 6:37 AM EDT 8:46 PM EDT
Civil Twilight 6:07 AM EDT 9:16 PM EDT
Nautical Twilight 5:30 AM EDT 9:53 PM EDT
Astronomical Twilight 4:50 AM EDT 10:33 PM EDT
Moon 9:33 AM EDT (5/8) No Moon Set
Length of Visible Light 15h 09m
Length of Day
14h 09m
Waxing Crescent, 15% of the Moon is Illuminated
May 8
Waxing Crescent
May 11
First Quarter
May 18
Full
May 26
Last Quarter
Jun 3
New

Hourly Weather History & Observations

Time (EDT) Temp. Windchill Dew Point Humidity Pressure Visibility Wind Dir Wind Speed Gust Speed Precip Events Conditions
12:15 AM 53.8 °F - 49.8 °F 86% 30.16 in 10.0 mi ENE 6.9 mph - N/A   Scattered Clouds
12:35 AM 53.4 °F - 49.6 °F 87% 30.15 in 10.0 mi ENE 9.2 mph - N/A   Scattered Clouds
12:55 AM 53.1 °F - 48.7 °F 85% 30.16 in 10.0 mi ENE 12.7 mph 17.3 mph N/A   Mostly Cloudy
1:15 AM 52.7 °F - 48.4 °F 85% 30.16 in 10.0 mi East 10.4 mph - N/A   Overcast
1:35 AM 52.2 °F - 48.6 °F 88% 30.15 in 10.0 mi ENE 8.1 mph - N/A   Scattered Clouds
1:55 AM 51.6 °F - 47.5 °F 86% 30.14 in 10.0 mi ENE 9.2 mph - N/A   Scattered Clouds
2:15 AM 51.1 °F - 47.3 °F 87% 30.15 in 10.0 mi ENE 9.2 mph - N/A   Scattered Clouds
2:35 AM 50.9 °F - 46.9 °F 86% 30.14 in 10.0 mi ENE 8.1 mph - N/A   Mostly Cloudy
2:55 AM 50.5 °F - 46.4 °F 86% 30.14 in 10.0 mi ENE 6.9 mph - N/A   Mostly Cloudy
3:15 AM 50.0 °F - 45.7 °F 85% 30.14 in 10.0 mi ENE 8.1 mph - N/A   Clear
3:35 AM 49.6 °F - 45.5 °F 86% 30.14 in 10.0 mi ENE 9.2 mph - N/A   Clear
3:55 AM 49.3 °F - 45.0 °F 85% 30.14 in 10.0 mi ENE 8.1 mph - N/A   Clear
4:15 AM 48.7 °F - 44.8 °F 86% 30.13 in 10.0 mi ENE 9.2 mph - N/A   Clear
4:35 AM 48.2 °F - 45.0 °F 89% 30.12 in 10.0 mi East 11.5 mph 17.3 mph N/A   Clear
4:55 AM 47.5 °F - 44.6 °F 90% 30.13 in 10.0 mi ENE 10.4 mph - N/A   Clear
5:15 AM 47.3 °F - 44.6 °F 90% 30.14 in 10.0 mi East 9.2 mph - N/A   Scattered Clouds
5:35 AM 46.8 °F - 44.1 °F 90% 30.14 in 10.0 mi East 10.4 mph 16.1 mph N/A   Scattered Clouds
5:55 AM 46.8 °F - 43.7 °F 89% 30.14 in 10.0 mi East 9.2 mph 17.3 mph N/A   Clear
6:15 AM 46.4 °F 41.5 °F 43.2 °F 88% 30.14 in 10.0 mi East 10.4 mph 16.1 mph N/A   Scattered Clouds
6:35 AM 46.4 °F 42.4 °F 42.8 °F 87% 30.14 in 10.0 mi East 8.1 mph - N/A   Scattered Clouds
6:55 AM 46.4 °F 41.5 °F 42.3 °F 85% 30.13 in 10.0 mi East 10.4 mph - N/A   Scattered Clouds
7:15 AM 46.6 °F - 42.1 °F 84% 30.13 in 10.0 mi East 9.2 mph - N/A   Clear
7:35 AM 46.9 °F - 41.9 °F 83% 30.13 in 10.0 mi East 10.4 mph - N/A   Clear
7:55 AM 47.5 °F - 42.1 °F 82% 30.14 in 10.0 mi East 11.5 mph - N/A   Clear
8:15 AM 49.1 °F - 42.4 °F 78% 30.13 in 10.0 mi East 12.7 mph 17.3 mph N/A   Clear
8:35 AM 50.0 °F - 42.6 °F 76% 30.12 in 10.0 mi East 15.0 mph - N/A   Clear
8:55 AM 51.6 °F - 43.3 °F 73% 30.11 in 10.0 mi East 11.5 mph - N/A   Clear
9:15 AM 52.2 °F - 43.7 °F 73% 30.11 in 10.0 mi East 13.8 mph - N/A   Clear
9:35 AM 53.1 °F - 44.4 °F 72% 30.10 in 10.0 mi East 12.7 mph - N/A   Clear
9:55 AM 54.9 °F - 45.7 °F 71% 30.11 in 10.0 mi East 11.5 mph - N/A   Clear
10:15 AM 57.0 °F - 47.1 °F 69% 30.11 in 10.0 mi East 11.5 mph - N/A   Scattered Clouds
10:35 AM 56.5 °F - 47.1 °F 71% 30.11 in 10.0 mi East 10.4 mph - N/A   Mostly Cloudy
10:55 AM 58.1 °F - 48.4 °F 70% 30.10 in 10.0 mi East 9.2 mph - N/A   Mostly Cloudy
11:15 AM 60.6 °F - 50.0 °F 68% 30.09 in 10.0 mi East 11.5 mph - N/A   Mostly Cloudy
11:35 AM 62.4 °F - 51.3 °F 67% 30.08 in 10.0 mi ESE 13.8 mph - N/A   Scattered Clouds
11:55 AM 63.7 °F - 52.2 °F 66% 30.07 in 10.0 mi ESE 12.7 mph - N/A   Clear
12:15 PM 65.1 °F - 53.1 °F 65% 30.07 in 10.0 mi ESE 13.8 mph - N/A   Clear
12:35 PM 66.6 °F - 54.0 °F 64% 30.06 in 10.0 mi ESE 13.8 mph 17.3 mph N/A   Clear
12:55 PM 67.3 °F - 54.5 °F 63% 30.04 in 10.0 mi ESE 12.7 mph 18.4 mph N/A   Clear
1:15 PM 69.4 °F - 55.6 °F 61% 30.03 in 10.0 mi ESE 11.5 mph - N/A   Clear
1:35 PM 70.7 °F - 55.9 °F 59% 30.03 in 10.0 mi SE 9.2 mph - N/A   Clear
1:55 PM 72.5 °F - 56.8 °F 58% 30.02 in 10.0 mi SE 11.5 mph - N/A   Clear
2:15 PM 73.6 °F - 57.2 °F 56% 30.01 in 10.0 mi SE 11.5 mph - N/A   Clear
2:35 PM 74.5 °F - 57.6 °F 55% 30.00 in 10.0 mi SE 10.4 mph - N/A   Clear
2:55 PM 75.7 °F - 58.1 °F 54% 29.98 in 10.0 mi ESE 13.8 mph 19.6 mph N/A   Clear
3:15 PM 77.0 °F - 57.9 °F 52% 29.97 in 10.0 mi SE 13.8 mph 23.0 mph N/A   Clear
3:35 PM 78.1 °F - 57.4 °F 49% 29.95 in 10.0 mi SE 13.8 mph - N/A   Clear
3:55 PM 78.4 °F - 57.7 °F 49% 29.94 in 10.0 mi ESE 13.8 mph 17.3 mph N/A   Clear
4:15 PM 78.3 °F - 57.6 °F 49% 29.94 in 10.0 mi SE 15.0 mph 25.3 mph N/A   Clear
4:35 PM 79.7 °F - 58.3 °F 48% 29.92 in 10.0 mi SE 11.5 mph 23.0 mph N/A   Clear
4:55 PM 79.3 °F - 57.2 °F 47% 29.92 in 10.0 mi SE 17.3 mph 24.2 mph N/A   Clear
5:15 PM 79.5 °F - 57.4 °F 47% 29.91 in 10.0 mi SE 15.0 mph 24.2 mph N/A   Clear
5:35 PM 79.5 °F - 57.6 °F 47% 29.90 in 10.0 mi SE 16.1 mph 23.0 mph N/A   Clear
5:55 PM 79.2 °F - 56.1 °F 45% 29.89 in 10.0 mi SSE 17.3 mph 23.0 mph N/A   Clear
6:15 PM 78.3 °F - 56.5 °F 47% 29.90 in 10.0 mi SSE 16.1 mph 25.3 mph N/A   Clear
6:35 PM 78.8 °F - 57.4 °F 48% 29.89 in 10.0 mi SE 16.1 mph - N/A   Clear
6:55 PM 78.8 °F - 57.4 °F 48% 29.88 in 10.0 mi SSE 15.0 mph 23.0 mph N/A   Clear
7:15 PM 78.4 °F - 57.4 °F 48% 29.88 in 10.0 mi SSE 13.8 mph 21.9 mph N/A   Clear
7:35 PM 77.7 °F - 57.4 °F 49% 29.87 in 10.0 mi SSE 16.1 mph 24.2 mph N/A   Clear
7:55 PM 77.0 °F - 58.1 °F 52% 29.86 in 10.0 mi SSE 13.8 mph 17.3 mph N/A   Clear
8:15 PM 76.3 °F - 58.3 °F 54% 29.86 in 10.0 mi SSE 11.5 mph 17.3 mph N/A   Clear
8:35 PM 75.0 °F - 58.5 °F 56% 29.86 in 10.0 mi SSE 12.7 mph 19.6 mph N/A   Clear
8:55 PM 74.3 °F - 58.6 °F 58% 29.86 in 10.0 mi SSE 10.4 mph - N/A   Scattered Clouds
9:15 PM 73.6 °F - 59.0 °F 60% 29.86 in 10.0 mi SSE 10.4 mph - N/A   Scattered Clouds
9:35 PM 73.4 °F - 59.2 °F 61% 29.87 in 10.0 mi SSE 10.4 mph - N/A   Clear
9:55 PM 72.7 °F - 59.7 °F 64% 29.87 in 10.0 mi SSE 10.4 mph - N/A   Clear
10:15 PM 72.9 °F - 59.9 °F 64% 29.87 in 10.0 mi SSE 10.4 mph - N/A   Clear
10:35 PM 72.7 °F - 60.4 °F 65% 29.88 in 10.0 mi SSE 10.4 mph - N/A   Clear
10:55 PM 71.6 °F - 60.8 °F 69% 29.88 in 10.0 mi SSE 9.2 mph - N/A   Clear
11:15 PM 70.7 °F - 61.3 °F 72% 29.87 in 10.0 mi SSE 8.1 mph - N/A   Clear
11:35 PM 70.7 °F - 61.7 °F 73% 29.86 in 10.0 mi SE 8.1 mph - N/A   Clear
11:55 PM 70.7 °F - 61.9 °F 74% 29.85 in 10.0 mi SSE 8.1 mph - N/A   Clear